Location: ČR
(50.0000°N, 15.0000°E)
Time: 10:56:09
(UTC+02:00)

A-11 Canister half - Pass Details

Date: 17 March 2026
Orbit: 1514 x 1685 km, 47.2° (Epoch: 16 April)

Event Time Altitude Azimuth Distance (km) Brightness Sun altitude
Rises 19:23:27 0° 288° (WNW) 4,931 13.7 -12.8°
Reaches altitude 10° 19:26:48 10° 282° (WNW) 3,949 12.6 -13.3°
Maximum altitude 19:36:09 44° 215° (SW) 2,206 10.0 -14.8°
Drops below altitude 10° 19:45:24 10° 148° (SSE) 3,908 10.7 -16.2°
Enters shadow 19:45:40 - 148° (SSE) 3,984 10.7 -16.3°
Sets 19:48:43 0° 142° (SE) 4,877 - -16.7°
